Location: Aula-Vintri
(58.3875°N, 22.4322°E)
Time: 16:29:02
(UTC+00:00)

Cosmos 1607 - Pass Details

Date: 13 October 2019
Orbit: 929 x 973 km, 65.0° (Epoch: 14 November)

Event Time Altitude Azimuth Distance (km) Brightness Sun altitude
Rises 16:52:59 0° 226° (SW) 3,577 7.6 -11.4°
Reaches altitude 10° 16:55:30 10° 226° (SW) 2,635 6.9 -11.8°
Maximum altitude 17:01:39 83° 140° (SE) 945 3.9 -12.6°
Drops below altitude 10° 17:07:51 10° 53° (NE) 2,651 5.9 -13.4°
Enters shadow 17:08:22 - 53° (NE) 2,847 6.0 -13.5°
